This is the latest recevied weather packets stored in our database for station/object KD4WXI. If no packets are shown the sender has not sent any weather packets the latest 10 day(s).
| Time | Temp. | Humidity | Pressure | Rain* | Wind** | Luminosity | Snow |
|---|---|---|---|---|---|---|---|
| 1777614968 | 11.11° C | 63% | 1015.2 hPa | 0 mm | - | 0 W/m² | - |
| 1777614665 | 11.11° C | 61% | 1015.4 hPa | 0 mm | - | 0 W/m² | - |
| 1777614360 | 11.11° C | 64% | 1015.6 hPa | 0 mm | - | 0 W/m² | - |
| 1777614056 | 11.11° C | 62% | 1015.2 hPa | 0 mm | - | 0 W/m² | - |
| 1777613751 | 11.11° C | 65% | 1015.2 hPa | 0 mm | - | 0 W/m² | - |
| 1777613449 | 11.67° C | 63% | 1015.2 hPa | 0 mm | - | 0 W/m² | - |
| 1777613145 | 11.67° C | 62% | 1015.3 hPa | 0 mm | - | 0 W/m² | - |
| 1777612842 | 11.67° C | 60% | 1015.3 hPa | 0 mm | - | 0 W/m² | - |
| 1777612538 | 11.11° C | 61% | 1015.2 hPa | 0 mm | - | 0 W/m² | - |
| 1777612233 | 11.11° C | 63% | 1015 hPa | 0 mm | - | 0 W/m² | - |
| 1777611928 | 10.56° C | 67% | 1014.8 hPa | 0 mm | - | 0 W/m² | - |
| 1777611625 | 10.56° C | 71% | 1015 hPa | 0 mm | - | 0 W/m² | - |
| 1777611321 | 10° C | 68% | 1014.9 hPa | 0 mm | - | 0 W/m² | - |
| 1777611019 | 10° C | 73% | 1014.5 hPa | 0 mm | - | 0 W/m² | - |
| 1777610714 | 10° C | 82% | 1014.6 hPa | 0 mm | - | 0 W/m² | - |
| 1777610413 | 9.44° C | 76% | 1014.7 hPa | 0 mm | - | 0 W/m² | - |
| 1777610109 | 8.89° C | 77% | 1014.6 hPa | 0 mm | - | 0 W/m² | - |
| 1777609806 | 8.89° C | 81% | 1014.5 hPa | 0 mm | - | 0 W/m² | - |
| 1777609503 | 8.89° C | 84% | 1014.5 hPa | 0 mm | - | 0 W/m² | - |
| 1777609200 | 8.89° C | 84% | 1014.2 hPa | 0 mm | - | 0 W/m² | - |
| 1777608898 | 9.44° C | 83% | 1014.3 hPa | 0 mm | - | 0 W/m² | - |
| 1777608594 | 10° C | 82% | 1014.3 hPa | 0 mm | - | 0 W/m² | - |
| 1777608291 | 10° C | 82% | 1014.3 hPa | 0 mm | - | 0 W/m² | - |
| 1777607990 | 10° C | 81% | 1014.5 hPa | 0 mm | - | 0 W/m² | - |
| 1777607684 | 10° C | 81% | 1014.2 hPa | 0 mm | - | 0 W/m² | - |
* Rain latest hour (hover to see other rain measurements)
** Current wind speed in m/s (hover to see current wind gust speed)